GW1907 Weather Reports


time (UTC)temp
C
wind
direction
speed
KPH
gust
KPH
rain 1hr
cm
rain 24hr
cm
rain mn
cm
humidity
%
barometer
mb
20260506230057 25 23 12.9 14.5 0.00 0.00 0.00 73 1011.9
20260506225553 26 64 8.0 9.7 0.00 0.00 0.00 74 1011.5
20260506225050 26 44 11.3 12.9 0.00 0.00 0.00 73 1011.5
20260506224547 26 42 9.7 12.9 0.00 0.00 0.00 73 1011.5
20260506224043 27 73 11.3 16.1 0.00 0.00 0.00 73 1011.2
20260506223539 27 29 9.7 9.7 0.00 0.00 0.00 73 1011.2
20260506223036 27 27 4.8 8.0 0.00 0.00 0.00 74 1010.9
20260506222533 27 45 6.4 12.9 0.00 0.00 0.00 73 1010.9
20260506222029 27 47 11.3 14.5 0.00 0.00 0.00 74 1010.9
20260506221527 27 21 8.0 11.3 0.00 0.00 0.00 74 1010.9
20260506221025 27 35 8.0 11.3 0.00 0.00 0.00 74 1010.9
20260506220520 27 93 4.8 8.0 0.00 0.00 0.00 75 1010.9
20260506220016 27 26 8.0 9.7 0.00 0.00 0.00 75 1010.9
20260506215513 28 27 11.3 14.5 0.00 0.00 0.00 74 1010.9
20260506215009 28 43 6.4 9.7 0.00 0.00 0.00 74 1010.9
20260506214506 28 61 9.7 14.5 0.00 0.00 0.00 74 1010.9
20260506214003 28 109 9.7 14.5 0.00 0.00 0.00 75 1010.9
20260506213501 29 95 1.6 3.2 0.00 0.00 0.00 75 1010.9
20260506212958 29 56 3.2 4.8 0.00 0.00 0.00 74 1010.5
20260506212454 29 104 9.7 14.5 0.00 0.00 0.00 74 1010.5
20260506211949 29 53 6.4 9.7 0.00 0.00 0.00 75 1010.5
20260506211445 29 48 4.8 8.0 0.00 0.00 0.00 74 1010.9
20260506210942 30 104 8.0 9.7 0.00 0.00 0.00 73 1010.9
20260506210439 30 73 6.4 9.7 0.00 0.00 0.00 73 1010.9
20260506205936 30 104 6.4 11.3 0.00 0.00 0.00 73 1010.9
20260506205432 30 109 4.8 4.8 0.00 0.00 0.00 73 1010.5
20260506204928 30 111 8.0 8.0 0.00 0.00 0.00 72 1010.9
20260506204427 30 103 1.6 3.2 0.00 0.00 0.00 71 1011.2
20260506203924 30 117 3.2 4.8 0.00 0.00 0.00 72 1011.2
20260506203421 30 55 1.6 3.2 0.00 0.00 0.00 71 1011.2
20260506202917 30 67 1.6 1.6 0.00 0.00 0.00 72 1011.2
20260506202415 29 48 1.6 1.6 0.00 0.00 0.00 72 1011.2
20260506201911 29 44 1.6 1.6 0.00 0.00 0.00 74 1011.2
20260506201409 29 52 1.6 1.6 0.00 0.00 0.00 73 1011.2
20260506200905 29 73 1.6 3.2 0.00 0.00 0.00 75 1011.5
20260506200401 30 69 1.6 1.6 0.00 0.00 0.00 74 1010.9
20260506195858 30 79 0.0 0.0 0.00 0.00 0.00 73 1011.2
20260506195355 30 119 4.8 4.8 0.00 0.00 0.00 74 1011.2
20260506194851 30 105 3.2 3.2 0.00 0.00 0.00 74 1011.2
20260506194348 29 66 1.6 1.6 0.00 0.00 0.00 75 1011.2
20260506193846 30 61 3.2 4.8 0.00 0.00 0.00 74 1011.5
20260506193343 29 38 3.2 4.8 0.00 0.00 0.00 75 1011.2
20260506192839 29 55 3.2 3.2 0.00 0.00 0.00 75 1011.5
20260506192336 30 103 0.0 0.0 0.00 0.00 0.00 75 1011.5
20260506191833 29 132 3.2 3.2 0.00 0.00 0.00 75 1011.5
20260506191329 29 135 1.6 3.2 0.00 0.00 0.00 76 1011.5
20260506190826 28 63 0.0 1.6 0.00 0.00 0.00 74 1011.2
20260506190322 28 82 1.6 1.6 0.00 0.00 0.00 76 1011.5
20260506185819 28 126 3.2 8.0 0.00 0.00 0.00 75 1011.5
20260506185316 28 161 4.8 4.8 0.00 0.00 0.00 77 1011.9
20260506184814 28 155 4.8 8.0 0.00 0.00 0.00 76 1011.9
20260506184311 28 159 4.8 4.8 0.00 0.00 0.00 77 1011.9
20260506183808 28 107 6.4 8.0 0.00 0.00 0.00 79 1011.9
20260506183303 28 43 1.6 3.2 0.00 0.00 0.00 80 1012.2
20260506182800 27 98 1.6 1.6 0.00 0.00 0.00 81 1011.9
20260506182257 27 68 0.0 0.0 0.00 0.00 0.00 81 1012.2
20260506181755 27 64 0.0 1.6 0.00 0.00 0.00 82 1012.2
20260506181253 27 62 1.6 3.2 0.00 0.00 0.00 82 1012.2
20260506180749 27 88 1.6 1.6 0.00 0.00 0.00 81 1012.2
20260506180245 27 88 3.2 3.2 0.00 0.00 0.00 81 1012.2
20260506175742 27 53 0.0 1.6 0.00 0.00 0.00 82 1012.5
20260506175239 27 49 4.8 4.8 0.00 0.00 0.00 82 1012.5
20260506174737 27 83 3.2 4.8 0.00 0.00 0.00 83 1012.2
20260506174233 27 68 8.0 11.3 0.00 0.00 0.00 83 1012.5
20260506173732 27 108 4.8 8.0 0.00 0.00 0.00 82 1012.5
20260506173228 27 45 4.8 8.0 0.00 0.00 0.00 82 1012.5
20260506172725 27 142 4.8 8.0 0.00 0.00 0.00 82 1012.5
20260506172221 27 88 3.2 3.2 0.00 0.00 0.00 82 1012.5
20260506171719 27 90 1.6 1.6 0.00 0.00 0.00 83 1012.9
20260506171216 27 45 4.8 4.8 0.00 0.00 0.00 83 1012.9
20260506170713 27 61 8.0 11.3 0.00 0.00 0.00 81 1012.9
20260506170210 27 96 3.2 3.2 0.00 0.00 0.00 82 1012.9
20260506165709 27 80 1.6 1.6 0.00 0.00 0.00 83 1012.5
20260506165205 27 82 4.8 8.0 0.00 0.00 0.00 84 1012.9
20260506164702 27 81 6.4 8.0 0.00 0.00 0.00 83 1012.5
20260506164159 26 85 4.8 8.0 0.00 0.00 0.00 83 1012.5
20260506163655 26 46 3.2 4.8 0.00 0.00 0.00 86 1012.5
20260506163151 26 38 4.8 8.0 0.00 0.00 0.00 86 1012.5
20260506162647 26 48 4.8 8.0 0.00 0.00 0.00 87 1012.5
20260506162145 26 66 4.8 8.0 0.00 0.00 0.00 87 1012.5
20260506161642 26 93 1.6 1.6 0.00 0.00 0.00 87 1012.5
20260506161138 26 81 3.2 3.2 0.00 0.00 0.00 87 1012.5
20260506160636 26 122 1.6 1.6 0.00 0.00 0.00 87 1012.9
20260506160133 26 113 0.0 0.0 0.00 0.00 0.00 88 1012.5
20260506155631 25 84 1.6 1.6 0.00 0.00 0.00 89 1012.5
20260506155128 25 60 4.8 4.8 0.00 0.00 0.00 92 1012.2
20260506153230 25 85 1.6 1.6 0.00 0.00 0.00 92 1011.9
20260506152727 25 96 1.6 1.6 0.00 0.00 0.00 93 1011.9
20260506152225 25 109 3.2 3.2 0.00 0.00 0.00 92 1012.2
20260506151724 25 113 0.0 0.0 0.00 0.00 0.00 93 1011.9
20260506151220 25 124 3.2 3.2 0.00 0.00 0.00 92 1011.9
20260506150716 25 114 0.0 0.0 0.00 0.00 0.00 92 1012.2
20260506150213 25 107 3.2 3.2 0.00 0.00 0.00 92 1011.9
20260506145710 25 106 1.6 1.6 0.00 0.00 0.00 92 1011.9
20260506145207 25 111 1.6 1.6 0.00 0.00 0.00 92 1011.9
20260506144704 25 105 0.0 0.0 0.00 0.00 0.00 93 1011.9
20260506144201 25 123 1.6 1.6 0.00 0.00 0.00 93 1011.9
20260506143659 24 118 1.6 1.6 0.00 0.00 0.00 93 1011.5
20260506143156 24 128 1.6 1.6 0.00 0.00 0.00 93 1011.5
20260506142655 24 130 0.0 1.6 0.00 0.00 0.00 94 1011.2
20260506142152 24 116 3.2 3.2 0.00 0.00 0.00 94 1011.5
20260506141650 24 106 3.2 3.2 0.00 0.00 0.00 93 1011.2
20260506141148 24 104 3.2 3.2 0.00 0.00 0.00 93 1011.2
20260506140645 24 157 3.2 3.2 0.00 0.00 0.00 93 1011.5
20260506140142 24 118 1.6 1.6 0.00 0.00 0.00 94 1011.2
20260506135639 24 117 1.6 3.2 0.00 0.00 0.00 93 1010.9
20260506135135 24 145 1.6 1.6 0.00 0.00 0.00 94 1010.9
20260506134632 24 142 1.6 3.2 0.00 0.00 0.00 94 1010.5
20260506134128 23 126 0.0 1.6 0.00 0.00 0.00 95 1010.5
20260506133625 23 119 3.2 4.8 0.00 0.00 0.00 95 1010.9
20260506133122 23 132 1.6 1.6 0.00 0.00 0.00 95 1010.5
20260506132620 23 131 4.8 8.0 0.00 0.00 0.00 95 1010.5
20260506132116 23 122 1.6 1.6 0.00 0.00 0.00 95 1010.5
20260506131614 23 143 3.2 3.2 0.00 0.00 0.00 94 1010.5
20260506131110 23 145 1.6 3.2 0.00 0.00 0.00 95 1010.5
20260506130607 23 122 1.6 1.6 0.00 0.00 0.00 95 1010.5
20260506130104 23 123 1.6 3.2 0.00 0.00 0.00 95 1010.5
20260506125603 23 124 1.6 3.2 0.00 0.00 0.00 95 1010.5
20260506125100 23 115 1.6 1.6 0.00 0.00 0.00 95 1010.5
20260506124557 23 121 1.6 1.6 0.00 0.00 0.00 95 1010.5
20260506124055 23 118 0.0 1.6 0.00 0.00 0.00 95 1010.5
20260506123553 23 130 3.2 3.2 0.00 0.00 0.00 95 1010.5
20260506123051 23 101 3.2 3.2 0.00 0.00 0.00 95 1010.2
20260506122547 23 123 0.0 0.0 0.00 0.00 0.00 95 1010.5
20260506122046 23 130 0.0 0.0 0.00 0.00 0.00 95 1010.5
20260506121543 23 122 0.0 0.0 0.00 0.00 0.00 95 1010.2
20260506121039 23 122 3.2 3.2 0.00 0.00 0.00 95 1010.2
20260506120537 23 118 4.8 8.0 0.00 0.00 0.00 95 1010.2
20260506120034 23 130 1.6 1.6 0.00 0.00 0.00 94 1010.2
20260506115532 23 130 0.0 1.6 0.00 0.00 0.00 94 1010.2
20260506115030 23 142 1.6 1.6 0.00 0.00 0.00 94 1010.2
20260506114527 23 124 1.6 1.6 0.00 0.00 0.00 94 1010.2
20260506114026 23 157 4.8 8.0 0.00 0.00 0.00 95 1010.2
20260506113523 23 128 1.6 3.2 0.00 0.00 0.00 94 1010.2
20260506113020 23 110 1.6 1.6 0.00 0.00 0.00 94 1010.2
20260506112517 23 94 1.6 1.6 0.00 0.00 0.00 94 1010.2
20260506112014 23 114 1.6 1.6 0.00 0.00 0.00 94 1010.2
20260506111512 23 120 0.0 0.0 0.00 0.00 0.00 94 1010.2
20260506111009 23 115 0.0 0.0 0.00 0.00 0.00 94 1010.2
20260506110507 23 105 0.0 0.0 0.00 0.00 0.00 94 1010.2
20260506110004 23 109 0.0 0.0 0.00 0.00 0.00 94 1010.2
20260506105459 23 104 0.0 0.0 0.00 0.00 0.00 94 1010.2
20260506104957 23 124 0.0 0.0 0.00 0.00 0.00 94 1009.8
20260506104455 23 132 0.0 0.0 0.00 0.00 0.00 94 1010.2
20260506103953 23 130 0.0 0.0 0.00 0.00 0.00 94 1009.8
20260506103449 23 138 0.0 0.0 0.00 0.00 0.00 94 1010.2
20260506102946 23 131 0.0 0.0 0.00 0.00 0.00 94 1010.2
20260506102444 23 130 0.0 0.0 0.00 0.00 0.00 94 1010.2
20260506101942 23 132 1.6 3.2 0.00 0.00 0.00 94 1009.8
20260506101438 23 135 0.0 0.0 0.00 0.00 0.00 94 1009.8
20260506100935 23 183 1.6 3.2 0.00 0.00 0.00 94 1009.8
20260506100433 23 146 0.0 1.6 0.00 0.00 0.00 93 1009.8
20260506095931 23 145 0.0 1.6 0.00 0.00 0.00 93 1009.8
20260506095430 24 151 3.2 3.2 0.00 0.00 0.00 92 1009.8
20260506094925 24 166 1.6 1.6 0.00 0.00 0.00 92 1009.8
20260506094424 24 151 1.6 1.6 0.00 0.00 0.00 92 1009.8
20260506093921 24 146 1.6 1.6 0.00 0.00 0.00 92 1009.8
20260506093419 24 163 1.6 3.2 0.00 0.00 0.00 92 1009.8
20260506092917 24 150 0.0 1.6 0.00 0.00 0.00 92 1009.8
20260506092415 24 146 3.2 3.2 0.00 0.00 0.00 92 1009.8
20260506091911 24 152 3.2 3.2 0.00 0.00 0.00 92 1009.5
20260506091409 24 138 3.2 3.2 0.00 0.00 0.00 92 1010.2
20260506090906 24 148 1.6 1.6 0.00 0.00 0.00 92 1009.8
20260506090403 24 151 0.0 1.6 0.00 0.00 0.00 91 1009.8
20260506085900 24 172 3.2 3.2 0.00 0.00 0.00 91 1009.8
20260506085356 24 172 1.6 1.6 0.00 0.00 0.00 91 1009.8
20260506084853 24 156 1.6 1.6 0.00 0.00 0.00 91 1009.8
20260506084350 24 145 1.6 3.2 0.00 0.00 0.00 91 1009.8
20260506083846 24 173 4.8 8.0 0.00 0.00 0.00 91 1010.2
20260506083344 24 165 4.8 8.0 0.00 0.00 0.00 91 1010.2
20260506082841 24 154 3.2 4.8 0.00 0.00 0.00 91 1009.8
20260506082337 25 161 3.2 3.2 0.00 0.00 0.00 91 1010.2
20260506081833 25 162 3.2 3.2 0.00 0.00 0.00 91 1010.2
20260506081332 25 154 3.2 3.2 0.00 0.00 0.00 91 1009.8
20260506080829 25 181 6.4 8.0 0.00 0.00 0.00 90 1010.2
20260506080325 25 184 4.8 8.0 0.00 0.00 0.00 90 1010.2
20260506073310 25 164 3.2 4.8 0.00 0.00 0.00 90 1010.2
20260506072806 25 150 3.2 3.2 0.00 0.00 0.00 90 1010.2
20260506072305 25 108 3.2 4.8 0.00 0.00 0.00 90 1010.2
20260506071801 25 157 4.8 4.8 0.00 0.00 0.00 90 1010.2
20260506071259 25 112 1.6 3.2 0.00 0.00 0.00 90 1010.2
20260506070756 25 137 1.6 1.6 0.00 0.00 0.00 90 1010.2
20260506070253 25 169 3.2 3.2 0.00 0.00 0.00 91 1010.5
20260506062230 25 114 4.8 4.8 0.00 0.00 0.00 91 1010.5
20260506061726 25 157 4.8 8.0 0.00 0.00 0.00 91 1010.5
20260506061224 25 147 6.4 9.7 0.00 0.00 0.00 91 1010.5
20260506060722 25 180 8.0 11.3 0.00 0.00 0.00 91 1010.5
20260506060219 25 114 4.8 8.0 0.00 0.00 0.00 91 1010.5
20260506051151 25 138 9.7 12.9 0.00 0.00 0.00 90 1010.2
20260506050649 25 136 3.2 3.2 0.00 0.00 0.00 90 1010.2
20260506050146 25 149 3.2 4.8 0.00 0.00 0.00 90 1010.5
20260506044637 25 195 3.2 8.0 0.00 0.00 0.00 90 1010.5
20260506044134 25 148 4.8 8.0 0.00 0.00 0.00 90 1010.5
20260506043631 25 142 0.0 1.6 0.00 0.00 0.00 90 1010.5
20260506043129 25 128 4.8 4.8 0.00 0.00 0.00 90 1010.5
20260506042628 25 187 11.3 12.9 0.00 0.00 0.00 90 1010.5
20260506042125 25 162 4.8 8.0 0.00 0.00 0.00 90 1010.2
20260506041624 25 124 3.2 3.2 0.00 0.00 0.00 90 1010.2
20260506041120 25 120 4.8 4.8 0.00 0.00 0.00 90 1010.2
20260506040618 25 182 4.8 9.7 0.00 0.00 0.00 90 1010.2
20260506040114 25 166 1.6 1.6 0.00 0.00 0.00 90 1010.2
20260506035611 25 150 1.6 3.2 0.00 0.00 0.00 90 1009.8
20260506035108 25 117 3.2 8.0 0.00 0.00 0.00 90 1009.8
20260506034605 25 157 1.6 3.2 0.00 0.00 0.00 90 1009.8
20260506034102 25 170 1.6 3.2 0.00 0.00 0.00 89 1009.8
20260506033559 25 162 3.2 3.2 0.00 0.00 0.00 89 1009.5
20260506033056 25 150 1.6 3.2 0.00 0.00 0.00 89 1009.8
20260506032554 25 130 3.2 4.8 0.00 0.00 0.00 88 1009.5
20260506032050 25 156 3.2 3.2 0.00 0.00 0.00 88 1009.5
20260506031548 26 137 3.2 3.2 0.00 0.00 0.00 88 1009.5
20260506031044 26 115 4.8 8.0 0.00 0.00 0.00 87 1009.5
20260506030543 26 162 4.8 8.0 0.00 0.00 0.00 87 1009.5
20260506030040 26 133 9.7 11.3 0.00 0.00 0.00 87 1009.5
20260506025537 26 150 4.8 8.0 0.00 0.00 0.00 87 1009.5
20260506025032 26 108 6.4 8.0 0.00 0.00 0.00 86 1009.2
20260506024530 26 168 8.0 11.3 0.00 0.00 0.00 86 1009.2
20260506024026 26 148 3.2 3.2 0.00 0.00 0.00 85 1009.2
20260506023522 26 144 4.8 4.8 0.00 0.00 0.00 85 1009.2
20260506023020 26 138 3.2 4.8 0.00 0.00 0.00 84 1009.2
20260506022517 26 114 4.8 4.8 0.00 0.00 0.00 85 1008.7
20260506022015 27 103 9.7 11.3 0.00 0.00 0.00 84 1009.2
20260506021512 27 151 6.4 9.7 0.00 0.00 0.00 84 1008.7
20260506021009 27 135 4.8 4.8 0.00 0.00 0.00 84 1008.4
20260506020507 27 155 8.0 16.1 0.00 0.00 0.00 83 1008.4
20260506020004 27 108 3.2 4.8 0.00 0.00 0.00 83 1008.4
20260506015501 27 126 4.8 4.8 0.00 0.00 0.00 82 1008.4
20260506014958 27 179 8.0 12.9 0.00 0.00 0.00 82 1008.4
20260506014455 28 111 4.8 8.0 0.00 0.00 0.00 81 1008.4
20260506013951 28 122 3.2 3.2 0.00 0.00 0.00 81 1008.4
20260506013449 28 136 0.0 1.6 0.00 0.00 0.00 80 1008.0
20260506012945 28 102 4.8 11.3 0.00 0.00 0.00 79 1008.0
20260506012442 28 145 8.0 11.3 0.00 0.00 0.00 79 1008.0
20260506011939 28 118 6.4 11.3 0.00 0.00 0.00 78 1008.0
20260506011436 28 120 8.0 11.3 0.00 0.00 0.00 78 1008.0
20260506010933 28 109 9.7 14.5 0.00 0.00 0.00 77 1007.7
20260506010432 29 169 1.6 3.2 0.00 0.00 0.00 75 1007.7
20260506005927 29 120 0.0 1.6 0.00 0.00 0.00 74 1007.4
20260506005426 29 121 3.2 3.2 0.00 0.00 0.00 74 1007.4
20260506004920 29 130 1.6 1.6 0.00 0.00 0.00 74 1007.4
20260506004419 29 143 4.8 4.8 0.00 0.00 0.00 74 1007.4
20260506003914 29 129 3.2 4.8 0.00 0.00 0.00 74 1007.7
20260506003411 29 145 4.8 8.0 0.00 0.00 0.00 74 1007.4
20260506002908 30 132 4.8 4.8 0.00 0.00 0.00 73 1007.4
20260506002404 30 130 6.4 9.7 0.00 0.00 0.00 73 1007.4
20260506001859 30 111 6.4 9.7 0.00 0.00 0.00 72 1007.4
20260506001356 30 132 1.6 1.6 0.00 0.00 0.00 72 1007.4
20260506000854 30 150 4.8 4.8 0.00 0.00 0.00 72 1007.4
20260506000354 30 136 1.6 1.6 0.00 0.00 0.00 72 1007.4
20260505235848 30 158 1.6 3.2 0.00 0.00 0.00 72 1007.0
20260505235346 30 138 1.6 1.6 0.00 0.00 0.00 72 1007.0
20260505234842 30 132 4.8 4.8 0.00 0.00 0.00 71 1007.4
20260505234340 30 135 8.0 9.7 0.00 0.00 0.00 72 1007.0
20260505233837 30 156 6.4 9.7 0.00 0.00 0.00 72 1007.0
20260505233335 30 145 4.8 4.8 0.00 0.00 0.00 71 1007.0
20260505232832 30 139 4.8 4.8 0.00 0.00 0.00 71 1007.0
20260505232330 30 99 4.8 8.0 0.00 0.00 0.00 70 1007.0
20260505231826 30 140 4.8 4.8 0.00 0.00 0.00 70 1007.0
20260505231324 31 122 8.0 12.9 0.00 0.00 0.00 69 1007.0
20260505230822 31 128 4.8 8.0 0.00 0.00 0.00 69 1007.0